SCP
-0 -0 -0 -0 -0 -0 0 0 0 0 0 0 0 0 0 0 0 -0 0 0 0 0 0 -0 -0 -0 -0 -0 -0 -0 -0 -0 -0 -0 -0 -0 -0 -0 -0 -0 -0 -0 -0 0 0 -0 0 0 0
-0 -0 -0 -0 0 0 0 0 0 0 0 0 0 0 -0 -0 0 0 0 0 0 0 -0 -0 0 -0 -0 -0 -0 -0 -0 -0 -0 -0 -0 -0 -0 -0 -0 -0 -0 -0 -0 -0 -0 -0 -0 0 0
-0 -0 -0 0 0 0 0 0 0 -0 0 0 0 0 0 -0 0 -0 0 -0 0 -0 -0 -0 -0 -0 -0 -0 -0 -0 -0 -0 -0 -0 -0 -0 -0 -0 -0 -0 -0 -0 -0 -0 -0 -0 -0 0 0
-0 -0 -0 0 0 0 0 0 -0 -0 -0 -0 0 0 0 0 -0 0 0 -0 0 -0 -0 -0 -0 -0 -0 -0 -0 -0 -0 -0 -0 -0 -0 -0 -0 -0 -0 -0 0 -0 0 0 0 0 0 0 0
-0 0 0 0 0 0 0 0 0 0 0 0 -0 0 0 0 -0 -0 0 -0 0 0 0 0 -0 -0 -0 -0 -0 -0 -0 -0 -0 0 0 -0 0 0 0 0 0 0 0 0 0 0 0 0 0
0 0 0 0 0 0 0 0 0 0 0 0 0 0 0 0 0 0 0 0 0 0 0 -0 -0 0 0 0 -0 -0 -0 -0 -0 -0 0 0 0 0 0 0 0 0 0 0 0 0 0 0 0
0 0 0 0 0 0 0 -0 0 0 0 0 0 0 0 0 0 0 0 0 0 0 0 0 0 0 -0 0 0 0 0 0 0 0 0 0 0 0 0 0 0 0 0 0 0 0 0 0 0
0 0 0 0 0 0 0 0 0 0 0 -0 0 0 0 -0 -0 0 0 0 0 0 0 0 0 0 0 0 0 0 0 0 0 0 0 0 0 0 0 0 0 0 0 0 0 0 0 0 0
0 0 0 0 0 0 0 0 0 0 0 0 0 0 0 -0 -0 -0 0 0 0 0 0 0 0 0 0 0 0 0 0 0 0 0 0 0 0 0 0 0 0 0 0 0 0 0 0 0 0
0 0 0 0 0 0 0 0 0 0 0 0 0 0 0 0 -0 -0 -0 0 0 0 0 0 0 0 0 0 0 0 0 0 0 0 0 0 0 0 0 0 0 0 0 0 0 0 0 0 0
0 0 0 0 0 0 0 0 0 0 0 0 0 0 0 -0 -0 0 0 0 0 0 0 0 0 0 0 0 0 0 0 0 0 0 0 0 0 0 0 0 0 0 0 0 0 0 0 0 0
0 0 0 0 0 0 0 0 0 0 0 0 0 0 0 0 0 0 0 0 0 0 0 0 0 0 0 0 0 0 0 0 0 0 0 0 0 0 0 0 0 0 0 0 0 0 0 0 0
0 0 0 0 0 0 0 0 0 0 0 0 0 0 0 0 0 0 0 0 0 0 0 0 0 0 0 0 0 0 0 0 0 0 0 0 0 0 0 0 0 0 0 0 0 0 0 0 0
0 0 0 0 0 0 0 0 0 0 0 0 0 0 0 0 0 0 0 0 0 0 0 0 0 0 0 0 0 0 0 0 0 0 0 0 0 0 0 0 0 0 0 0 0 0 0 0 0
0 0 0 0 0 0 0 0 0 0 0 0 0 0 0 0 0 0 0 0 0 0 0 0 0 0 0 0 0 0 0 0 0 0 0 0 0 0 0 0 0 0 0 0 0 0 0 0 0
0 0 0 0 0 0 0 0 0 0 0 0 0 0 0 0 0 0 0 0 0 0 0 0 0 0 0 0 0 0 0 0 0 0 0 0 0 0 0 0 0 0 0 0 0 0 0 0 0
0 0 0 0 0 0 0 0 0 0 0 0 0 0 0 0 0 0 0 0 0 0 0 0 0 0 0 0 0 0 0 0 0 0 0 0 0 0 0 0 0 0 0 0 0 0 0 0 0
0 0 0 0 0 0 0 0 0 0 0 0 0 0 0 0 0 0 0 0 0 0 0 0 0 0 0 0 0 0 0 0 0 0 0 0 0 0 0 0 0 0 0 0 0 0 0 0 0
0 0 0 0 0 0 0 0 0 0 0 0 0 0 0 0 0 0 0 0 0 0 0 0 0 0 0 0 0 0 0 0 0 0 0 0 0 0 0 0 0 0 0 0 0 0 0 0 0
0 0 0 0 0 0 0 0 0 0 0 0 0 0 0 0 0 0 0 0 0 0 0 0 0 0 0 0 0 0 0 0 0 0 0 0 0 0 0 0 0 0 0 0 0 0 0 0 0
0 0 0 0 0 0 0 0 0 0 0 0 0 0 0 0 0 0 0 0 0 0 0 0 0 0 0 0 0 0 0 0 0 0 0 0 0 0 0 0 0 0 0 0 0 0 0 0 0
0 0 0 0 0 0 0 0 0 0 0 0 0 0 0 0 0 0 0 0 0 0 0 0 0 0 0 0 0 0 0 0 0 0 0 0 0 0 0 0 0 0 0 0 0 0 0 0 0
0 0 0 0 0 0 0 0 0 0 0 0 0 0 0 0 0 0 0 0 0 0 0 0 0 0 0 0 0 0 -0 -0 -0 -0 0 0 0 0 0 0 0 0 0 0 0 0 0 0 0
0 0 0 0 0 0 0 0 0 0 0 0 0 0 0 0 0 0 0 0 0 0 0 0 0 0 0 0 -0 -0 -0 -0 0 0 0 0 0 0 0 0 0 0 0 0 0 0 0 0 0
0 0 0 0 0 0 0 0 0 0 0 0 0 0 0 0 0 0 0 0 0 0 0 0 0 0 0 0 0 0 0 0 0 0 0 0 0 0 0 0 0 0 0 0 0 0 0 0 0
0 0 0 0 0 0 0 0 0 0 0 0 0 0 0 0 0 0 0 0 0 0 0 0 0 0 0 0 0 0 0 0 0 0 0 0 0 0 0 0 0 0 0 0 0 0 0 0 0
0 0 0 0 0 0 0 0 0 0 0 0 0 0 0 0 0 0 0 0 0 0 0 0 0 0 0 0 0 0 0 0 0 0 0 0 0 0 0 0 0 0 0 0 0 0 0 0 0
0 0 0 0 0 0 0 0 0 0 0 0 0 0 0 0 0 0 0 0 0 0 0 0 0 0 0 0 0 0 0 0 0 0 0 0 0 0 0 0 0 0 0 0 0 0 0 0 0
0 0 0 0 0 0 0 0 0 0 0 0 0 0 0 0 0 0 0 0 0 0 0 0 0 0 0 0 0 0 0 0 0 0 0 0 0 0 0 0 0 0 0 0 0 0 0 0 0
0 0 0 0 0 0 0 0 0 0 0 0 0 0 0 0 0 0 0 0 0 0 0 0 0 0 0 0 0 0 0 0 0 0 0 0 0 0 0 0 0 0 0 0 0 0 -0 -0 -0
Wind_Speed_500mb
3 2 1 3 7 9 2 1 3 4 3 2 2 3 7 6 6 4 10 5 6 13 29 30 29 27 26 24 21 20 15 8 3 1 2 2 3 4 7 4 4 10 12 10 11 9 7 8 9
3 3 4 6 9 7 5 6 5 1 0 2 3 5 6 2 7 7 9 5 10 12 25 27 28 26 25 21 20 18 14 9 5 3 4 5 4 2 2 1 8 14 13 9 8 8 6 6 5
6 6 4 8 6 7 5 5 2 1 4 3 4 5 5 5 11 7 13 11 11 11 18 25 26 26 25 23 21 19 16 12 8 7 7 7 6 5 5 8 9 12 10 11 8 6 6 6 5
4 4 11 9 6 3 1 3 3 1 3 8 5 6 5 9 5 9 15 16 11 8 14 23 28 27 26 24 22 21 19 15 12 10 11 10 9 8 9 6 4 11 15 13 9 7 7 8 7
5 7 8 8 1 1 6 4 5 3 2 6 6 3 6 12 10 10 11 15 13 7 8 13 24 29 29 27 24 24 23 19 16 14 14 15 9 10 12 12 15 21 20 16 14 9 8 8 9
7 6 8 5 3 4 5 1 3 4 3 4 5 4 10 14 8 6 5 8 10 9 4 7 13 24 30 31 28 26 25 24 20 18 15 13 12 13 11 12 15 17 22 20 19 13 11 10 10
11 8 8 9 5 1 5 1 6 5 3 5 4 5 11 11 10 3 2 2 2 5 4 3 7 15 23 29 28 27 27 26 23 19 17 16 15 15 13 14 16 16 18 18 19 17 17 16 13
8 11 7 4 7 6 1 5 5 6 1 6 7 4 2 14 4 3 7 8 9 6 7 10 11 14 19 25 29 31 30 28 26 24 21 19 20 20 21 20 18 18 18 18 17 16 17 17 16
6 8 5 11 11 6 1 3 3 4 2 4 7 5 10 18 14 9 12 12 14 15 15 16 18 18 19 22 26 29 31 31 28 25 23 21 24 29 24 22 21 20 22 21 21 18 17 16 15
8 7 13 10 9 6 3 2 5 3 9 3 6 6 3 8 13 13 11 12 16 21 25 24 24 23 22 21 22 24 26 26 25 28 29 25 28 28 24 22 24 24 24 27 27 21 18 17 16
5 7 8 5 9 7 5 1 1 4 3 4 7 4 5 6 4 1 3 7 8 7 8 18 24 26 26 23 20 20 20 21 26 26 24 27 30 28 26 27 25 26 26 28 31 34 26 21 20
4 2 5 0 7 6 5 3 5 3 8 3 6 0 5 6 7 6 6 7 7 10 13 15 15 22 26 26 23 18 15 17 21 25 23 21 27 32 28 27 28 27 28 30 30 34 36 25 23
4 1 4 8 13 14 10 11 8 3 13 13 12 6 3 7 11 14 14 12 11 11 12 12 12 15 22 29 30 23 16 13 17 19 24 28 23 27 30 28 31 25 26 32 33 34 37 34 29
3 4 13 15 10 12 9 7 8 10 24 17 8 7 11 11 9 9 9 9 8 7 8 10 10 10 11 22 30 25 17 15 14 15 19 23 25 26 27 29 31 31 31 28 30 32 31 32 33
3 5 16 7 5 7 12 5 9 28 22 13 7 5 8 13 13 11 11 10 11 12 12 10 8 6 7 19 32 32 26 21 15 7 4 9 17 18 18 20 24 24 25 31 31 35 36 35 34
4 8 4 4 2 0 9 9 7 25 21 10 6 4 2 6 12 14 13 12 14 15 15 20 17 11 9 15 26 28 23 17 11 8 14 16 16 19 16 19 21 23 24 27 28 32 33 31 34
11 6 7 13 4 3 6 9 12 22 14 13 10 8 7 9 11 13 15 15 15 17 19 22 23 23 25 24 23 24 22 22 13 9 9 13 15 15 22 22 23 27 29 34 34 36 35 38 42
13 8 9 10 5 5 5 15 12 7 12 14 13 11 12 14 17 18 19 21 22 21 23 28 31 32 30 28 27 25 25 24 16 10 5 4 8 13 17 20 21 24 26 27 24 26 26 25 27
11 9 12 4 5 5 12 11 15 8 12 16 16 17 19 22 27 29 33 34 34 33 33 31 28 32 29 27 27 26 26 26 18 11 5 3 7 11 16 17 18 20 25 26 24 26 28 33 38
8 9 12 9 5 3 11 19 15 2 8 17 27 27 28 32 34 38 42 46 50 52 52 51 50 45 43 40 41 38 34 31 24 19 14 12 9 8 6 7 11 15 16 21 24 27 25 28 34
10 13 9 12 3 5 4 13 8 2 5 14 21 27 30 35 40 43 45 49 52 54 50 51 50 46 44 42 40 38 35 35 29 26 22 21 20 18 16 13 11 12 14 15 19 22 25 27 27
11 16 13 10 8 9 2 9 8 6 6 13 27 34 37 38 40 43 43 45 46 47 46 40 38 37 37 33 29 25 26 24 28 25 24 22 22 23 22 23 23 21 22 21 24 25 23 24 27
11 11 14 7 7 4 5 1 13 6 12 16 28 34 36 37 37 39 37 37 38 39 37 34 31 31 30 24 21 23 29 34 30 26 22 23 25 24 25 25 26 26 27 27 26 27 29 30 30
18 12 12 8 6 4 16 16 8 10 12 8 39 55 51 46 44 41 37 35 32 30 30 26 22 24 22 21 23 25 27 26 20 19 16 18 19 20 21 24 26 28 28 30 33 34 33 32 30
2 12 1 3 1 10 5 5 13 7 4 5 38 55 54 53 53 49 44 39 33 24 20 19 16 16 14 10 12 13 11 10 8 7 9 11 14 17 21 24 25 28 31 32 34 37 39 40 41
16 13 10 14 8 6 4 12 11 5 4 9 26 60 60 57 51 48 41 34 29 24 19 15 11 8 8 8 10 11 9 7 6 8 10 12 16 20 22 24 28 30 33 35 38 41 44 46 47
13 12 8 12 4 5 9 8 6 2 1 5 33 59 68 65 60 54 44 36 30 24 19 13 10 10 12 12 10 8 7 5 5 8 11 13 17 20 24 27 30 33 36 40 44 49 54 57 58
9 13 5 4 3 9 7 8 9 13 16 12 25 54 69 65 62 56 50 40 32 28 23 19 18 16 16 15 11 7 3 2 5 9 12 16 19 21 23 26 29 32 37 42 47 52 57 62 67
8 7 5 7 8 10 4 10 12 18 19 28 40 67 76 74 68 62 54 46 37 34 30 26 24 23 22 19 16 11 7 3 6 12 18 23 27 30 33 35 38 41 45 50 56 61 64 68 71
3 15 14 9 10 5 3 11 1 9 21 43 51 63 69 68 65 61 56 51 49 44 40 32 30 31 29 27 22 15 9 7 11 18 24 28 32 36 39 42 45 49 52 57 63 67 71 75 78
Wind_Direction_500mb
320 301 326 108 61 65 25 130 271 18 29 18 55 102 136 115 140 131 6 113 58 170 182 180 180 179 179 178 181 184 187 188 190 343 1 20 33 40 66 97 349 354 353 16 30 36 40 33 34
42 55 91 88 81 68 287 269 150 197 5 98 112 82 82 62 54 65 39 64 61 142 183 186 185 188 188 188 188 196 209 214 219 270 293 306 314 332 85 329 326 322 327 360 11 13 19 17 17
76 54 72 87 105 147 173 230 231 88 55 108 113 66 77 32 45 67 45 63 62 120 167 193 194 196 198 201 204 209 209 211 242 275 288 288 290 300 316 328 322 317 320 329 344 342 339 334 337
56 81 64 78 99 205 50 309 218 48 69 54 67 64 60 29 56 64 60 50 48 108 146 183 200 204 208 212 212 213 216 227 250 268 280 285 290 294 310 324 309 348 358 356 336 317 317 310 305
70 72 60 85 45 246 264 275 148 92 89 44 62 1 70 41 71 67 56 47 46 67 153 180 201 208 212 219 220 219 225 237 256 271 284 289 289 298 315 317 322 345 354 4 353 328 316 310 310
80 73 68 150 218 293 272 300 156 109 57 84 66 47 72 64 69 58 45 41 52 59 112 189 201 213 220 225 225 227 232 243 257 267 271 266 294 310 316 318 325 331 348 357 355 349 334 327 323
102 79 154 146 178 151 209 314 150 117 70 61 47 88 137 39 30 33 204 209 97 86 107 195 227 223 226 231 233 232 233 242 253 258 259 256 270 292 298 308 315 322 335 345 356 352 342 334 330
94 94 111 198 175 184 236 147 112 76 180 0 11 43 108 328 354 225 217 225 215 206 202 208 222 232 234 233 230 232 239 248 250 252 255 261 264 273 279 289 293 302 313 323 340 348 343 334 330
92 67 145 194 155 178 59 112 120 360 118 345 62 44 301 301 291 259 227 228 234 247 245 236 230 225 233 238 237 235 232 240 245 249 250 250 258 263 269 281 285 296 305 308 315 330 336 323 320
80 101 202 188 187 149 100 90 329 140 354 103 100 49 352 270 253 251 249 249 253 252 252 248 241 234 231 231 237 237 234 235 238 241 240 237 245 256 269 278 281 291 297 307 309 306 319 319 308
118 163 186 186 192 161 144 264 291 163 114 102 330 51 48 54 72 58 319 314 312 313 289 258 250 244 237 229 228 236 236 231 232 244 248 254 252 258 267 276 286 288 290 300 311 317 309 313 308
101 194 191 226 179 173 175 256 267 224 160 219 251 112 25 6 358 355 333 317 308 297 291 289 278 250 244 236 220 224 235 233 238 249 248 267 265 264 272 275 281 292 296 295 303 311 317 304 300
116 290 242 257 265 264 239 232 238 186 206 178 157 155 47 22 360 348 342 331 315 307 300 300 288 264 241 231 225 203 206 214 228 248 255 253 258 275 273 280 279 291 293 294 294 299 304 310 300
166 266 280 281 245 254 201 183 192 133 153 152 154 64 45 30 25 356 322 326 325 326 304 293 290 285 248 220 214 203 199 205 204 205 233 249 253 251 262 274 284 288 288 295 294 296 302 303 299
137 317 326 284 275 221 175 130 210 158 172 143 103 46 5 10 18 14 12 17 25 23 16 352 322 289 233 186 188 190 192 197 194 190 236 240 237 239 250 255 262 265 280 283 298 298 294 294 300
67 52 351 267 187 270 161 252 188 169 175 150 163 155 78 29 24 35 41 38 40 42 43 46 50 70 109 155 175 183 181 181 180 236 257 264 270 269 262 250 258 271 277 273 280 280 278 287 287
7 233 223 313 235 152 177 250 164 176 214 179 164 142 116 73 60 64 72 78 81 78 79 79 81 85 98 115 135 146 142 133 152 206 255 275 282 289 282 293 295 292 288 283 283 280 286 285 281
195 212 244 234 217 188 191 261 173 190 197 157 148 133 113 104 90 89 92 91 96 102 107 99 94 95 95 102 114 125 128 128 139 151 161 249 282 277 282 286 293 295 299 295 301 295 297 288 291
138 170 216 226 257 174 226 254 262 153 144 158 155 137 121 109 102 101 102 100 100 102 106 106 102 96 96 101 109 114 113 109 117 102 77 318 300 297 301 296 298 292 289 295 306 308 307 304 303
139 166 242 292 222 135 275 260 261 135 175 191 172 158 146 126 117 110 107 107 104 100 98 98 95 94 93 90 89 90 94 97 91 83 77 70 62 47 15 334 311 306 304 295 300 305 318 322 323
198 198 190 215 37 214 354 278 230 58 105 152 166 160 150 141 136 129 123 115 107 101 95 92 89 86 83 82 83 85 87 91 94 86 79 67 57 49 41 34 24 3 351 332 329 317 309 308 310
206 194 176 174 126 234 139 275 289 186 167 179 173 170 164 156 147 138 131 125 118 109 105 96 88 86 86 88 91 89 86 74 79 70 64 60 53 47 46 40 36 34 28 17 16 7 358 343 333
229 138 164 141 158 113 230 288 263 154 228 196 191 182 175 165 155 145 137 126 116 111 106 94 86 87 94 96 90 81 74 76 77 69 56 45 39 34 32 29 28 23 23 21 16 11 10 10 2
149 81 56 56 108 255 215 183 257 205 212 158 184 187 184 174 166 157 149 139 130 125 113 100 87 79 79 73 64 54 54 55 55 49 34 29 23 22 21 19 14 14 11 10 8 8 4 4 359
125 117 50 330 277 228 49 144 247 236 181 183 190 188 184 180 175 169 164 156 147 138 127 115 97 76 69 69 79 81 75 81 73 63 46 37 24 14 10 9 6 5 5 1 358 354 351 349 345
190 169 169 207 199 232 47 220 243 153 174 224 196 189 185 185 182 179 173 167 160 160 157 140 131 127 124 144 145 129 120 106 79 63 38 18 11 8 7 4 360 355 353 350 348 346 342 339 335
186 203 166 108 42 65 218 275 270 146 196 161 179 187 189 188 187 188 184 181 178 175 178 179 190 188 172 171 163 149 130 106 59 32 17 1 354 349 345 341 339 338 338 338 337 336 333 332 330
179 156 99 4 210 260 264 257 228 205 202 180 185 191 194 193 193 192 195 195 192 196 199 207 212 205 198 197 189 180 161 100 24 12 358 354 347 340 334 332 334 333 333 332 331 330 330 328 327
150 181 78 135 160 185 229 245 212 192 180 193 201 199 197 195 195 198 201 203 209 212 215 218 219 219 214 212 208 210 221 294 351 350 344 339 335 333 330 329 328 328 328 328 328 329 329 328 325
224 189 163 169 213 256 173 244 114 233 201 194 201 199 199 200 200 203 207 211 216 222 224 223 224 225 220 219 219 224 243 288 328 332 331 329 328 328 327 325 325 325 326 326 327 327 327 327 325
Wind_Speed_850mb
3 2 1 3 7 9 2 1 3 4 3 2 2 3 7 6 6 4 10 5 6 13 29 30 29 27 26 24 21 20 15 8 3 1 2 2 3 4 7 4 4 10 12 10 11 9 7 8 9
3 3 4 6 9 7 5 6 5 1 0 2 3 5 6 2 7 7 9 5 10 12 25 27 28 26 25 21 20 18 14 9 5 3 4 5 4 2 2 1 8 14 13 9 8 8 6 6 5
6 6 4 8 6 7 5 5 2 1 4 3 4 5 5 5 11 7 13 11 11 11 18 25 26 26 25 23 21 19 16 12 8 7 7 7 6 5 5 8 9 12 10 11 8 6 6 6 5
4 4 11 9 6 3 1 3 3 1 3 8 5 6 5 9 5 9 15 16 11 8 14 23 28 27 26 24 22 21 19 15 12 10 11 10 9 8 9 6 4 11 15 13 9 7 7 8 7
5 7 8 8 1 1 6 4 5 3 2 6 6 3 6 12 10 10 11 15 13 7 8 13 24 29 29 27 24 24 23 19 16 14 14 15 9 10 12 12 15 21 20 16 14 9 8 8 9
7 6 8 5 3 4 5 1 3 4 3 4 5 4 10 14 8 6 5 8 10 9 4 7 13 24 30 31 28 26 25 24 20 18 15 13 12 13 11 12 15 17 22 20 19 13 11 10 10
11 8 8 9 5 1 5 1 6 5 3 5 4 5 11 11 10 3 2 2 2 5 4 3 7 15 23 29 28 27 27 26 23 19 17 16 15 15 13 14 16 16 18 18 19 17 17 16 13
8 11 7 4 7 6 1 5 5 6 1 6 7 4 2 14 4 3 7 8 9 6 7 10 11 14 19 25 29 31 30 28 26 24 21 19 20 20 21 20 18 18 18 18 17 16 17 17 16
6 8 5 11 11 6 1 3 3 4 2 4 7 5 10 18 14 9 12 12 14 15 15 16 18 18 19 22 26 29 31 31 28 25 23 21 24 29 24 22 21 20 22 21 21 18 17 16 15
8 7 13 10 9 6 3 2 5 3 9 3 6 6 3 8 13 13 11 12 16 21 25 24 24 23 22 21 22 24 26 26 25 28 29 25 28 28 24 22 24 24 24 27 27 21 18 17 16
5 7 8 5 9 7 5 1 1 4 3 4 7 4 5 6 4 1 3 7 8 7 8 18 24 26 26 23 20 20 20 21 26 26 24 27 30 28 26 27 25 26 26 28 31 34 26 21 20
4 2 5 0 7 6 5 3 5 3 8 3 6 0 5 6 7 6 6 7 7 10 13 15 15 22 26 26 23 18 15 17 21 25 23 21 27 32 28 27 28 27 28 30 30 34 36 25 23
4 1 4 8 13 14 10 11 8 3 13 13 12 6 3 7 11 14 14 12 11 11 12 12 12 15 22 29 30 23 16 13 17 19 24 28 23 27 30 28 31 25 26 32 33 34 37 34 29
3 4 13 15 10 12 9 7 8 10 24 17 8 7 11 11 9 9 9 9 8 7 8 10 10 10 11 22 30 25 17 15 14 15 19 23 25 26 27 29 31 31 31 28 30 32 31 32 33
3 5 16 7 5 7 12 5 9 28 22 13 7 5 8 13 13 11 11 10 11 12 12 10 8 6 7 19 32 32 26 21 15 7 4 9 17 18 18 20 24 24 25 31 31 35 36 35 34
4 8 4 4 2 0 9 9 7 25 21 10 6 4 2 6 12 14 13 12 14 15 15 20 17 11 9 15 26 28 23 17 11 8 14 16 16 19 16 19 21 23 24 27 28 32 33 31 34
11 6 7 13 4 3 6 9 12 22 14 13 10 8 7 9 11 13 15 15 15 17 19 22 23 23 25 24 23 24 22 22 13 9 9 13 15 15 22 22 23 27 29 34 34 36 35 38 42
13 8 9 10 5 5 5 15 12 7 12 14 13 11 12 14 17 18 19 21 22 21 23 28 31 32 30 28 27 25 25 24 16 10 5 4 8 13 17 20 21 24 26 27 24 26 26 25 27
11 9 12 4 5 5 12 11 15 8 12 16 16 17 19 22 27 29 33 34 34 33 33 31 28 32 29 27 27 26 26 26 18 11 5 3 7 11 16 17 18 20 25 26 24 26 28 33 38
8 9 12 9 5 3 11 19 15 2 8 17 27 27 28 32 34 38 42 46 50 52 52 51 50 45 43 40 41 38 34 31 24 19 14 12 9 8 6 7 11 15 16 21 24 27 25 28 34
10 13 9 12 3 5 4 13 8 2 5 14 21 27 30 35 40 43 45 49 52 54 50 51 50 46 44 42 40 38 35 35 29 26 22 21 20 18 16 13 11 12 14 15 19 22 25 27 27
11 16 13 10 8 9 2 9 8 6 6 13 27 34 37 38 40 43 43 45 46 47 46 40 38 37 37 33 29 25 26 24 28 25 24 22 22 23 22 23 23 21 22 21 24 25 23 24 27
11 11 14 7 7 4 5 1 13 6 12 16 28 34 36 37 37 39 37 37 38 39 37 34 31 31 30 24 21 23 29 34 30 26 22 23 25 24 25 25 26 26 27 27 26 27 29 30 30
18 12 12 8 6 4 16 16 8 10 12 8 39 55 51 46 44 41 37 35 32 30 30 26 22 24 22 21 23 25 27 26 20 19 16 18 19 20 21 24 26 28 28 30 33 34 33 32 30
2 12 1 3 1 10 5 5 13 7 4 5 38 55 54 53 53 49 44 39 33 24 20 19 16 16 14 10 12 13 11 10 8 7 9 11 14 17 21 24 25 28 31 32 34 37 39 40 41
16 13 10 14 8 6 4 12 11 5 4 9 26 60 60 57 51 48 41 34 29 24 19 15 11 8 8 8 10 11 9 7 6 8 10 12 16 20 22 24 28 30 33 35 38 41 44 46 47
13 12 8 12 4 5 9 8 6 2 1 5 33 59 68 65 60 54 44 36 30 24 19 13 10 10 12 12 10 8 7 5 5 8 11 13 17 20 24 27 30 33 36 40 44 49 54 57 58
9 13 5 4 3 9 7 8 9 13 16 12 25 54 69 65 62 56 50 40 32 28 23 19 18 16 16 15 11 7 3 2 5 9 12 16 19 21 23 26 29 32 37 42 47 52 57 62 67
8 7 5 7 8 10 4 10 12 18 19 28 40 67 76 74 68 62 54 46 37 34 30 26 24 23 22 19 16 11 7 3 6 12 18 23 27 30 33 35 38 41 45 50 56 61 64 68 71
3 15 14 9 10 5 3 11 1 9 21 43 51 63 69 68 65 61 56 51 49 44 40 32 30 31 29 27 22 15 9 7 11 18 24 28 32 36 39 42 45 49 52 57 63 67 71 75 78
Wind_Direction_850mb
320 301 326 108 61 65 25 130 271 18 29 18 55 102 136 115 140 131 6 113 58 170 182 180 180 179 179 178 181 184 187 188 190 343 1 20 33 40 66 97 349 354 353 16 30 36 40 33 34
42 55 91 88 81 68 287 269 150 197 5 98 112 82 82 62 54 65 39 64 61 142 183 186 185 188 188 188 188 196 209 214 219 270 293 306 314 332 85 329 326 322 327 360 11 13 19 17 17
76 54 72 87 105 147 173 230 231 88 55 108 113 66 77 32 45 67 45 63 62 120 167 193 194 196 198 201 204 209 209 211 242 275 288 288 290 300 316 328 322 317 320 329 344 342 339 334 337
56 81 64 78 99 205 50 309 218 48 69 54 67 64 60 29 56 64 60 50 48 108 146 183 200 204 208 212 212 213 216 227 250 268 280 285 290 294 310 324 309 348 358 356 336 317 317 310 305
70 72 60 85 45 246 264 275 148 92 89 44 62 1 70 41 71 67 56 47 46 67 153 180 201 208 212 219 220 219 225 237 256 271 284 289 289 298 315 317 322 345 354 4 353 328 316 310 310
80 73 68 150 218 293 272 300 156 109 57 84 66 47 72 64 69 58 45 41 52 59 112 189 201 213 220 225 225 227 232 243 257 267 271 266 294 310 316 318 325 331 348 357 355 349 334 327 323
102 79 154 146 178 151 209 314 150 117 70 61 47 88 137 39 30 33 204 209 97 86 107 195 227 223 226 231 233 232 233 242 253 258 259 256 270 292 298 308 315 322 335 345 356 352 342 334 330
94 94 111 198 175 184 236 147 112 76 180 0 11 43 108 328 354 225 217 225 215 206 202 208 222 232 234 233 230 232 239 248 250 252 255 261 264 273 279 289 293 302 313 323 340 348 343 334 330
92 67 145 194 155 178 59 112 120 360 118 345 62 44 301 301 291 259 227 228 234 247 245 236 230 225 233 238 237 235 232 240 245 249 250 250 258 263 269 281 285 296 305 308 315 330 336 323 320
80 101 202 188 187 149 100 90 329 140 354 103 100 49 352 270 253 251 249 249 253 252 252 248 241 234 231 231 237 237 234 235 238 241 240 237 245 256 269 278 281 291 297 307 309 306 319 319 308
118 163 186 186 192 161 144 264 291 163 114 102 330 51 48 54 72 58 319 314 312 313 289 258 250 244 237 229 228 236 236 231 232 244 248 254 252 258 267 276 286 288 290 300 311 317 309 313 308
101 194 191 226 179 173 175 256 267 224 160 219 251 112 25 6 358 355 333 317 308 297 291 289 278 250 244 236 220 224 235 233 238 249 248 267 265 264 272 275 281 292 296 295 303 311 317 304 300
116 290 242 257 265 264 239 232 238 186 206 178 157 155 47 22 360 348 342 331 315 307 300 300 288 264 241 231 225 203 206 214 228 248 255 253 258 275 273 280 279 291 293 294 294 299 304 310 300
166 266 280 281 245 254 201 183 192 133 153 152 154 64 45 30 25 356 322 326 325 326 304 293 290 285 248 220 214 203 199 205 204 205 233 249 253 251 262 274 284 288 288 295 294 296 302 303 299
137 317 326 284 275 221 175 130 210 158 172 143 103 46 5 10 18 14 12 17 25 23 16 352 322 289 233 186 188 190 192 197 194 190 236 240 237 239 250 255 262 265 280 283 298 298 294 294 300
67 52 351 267 187 270 161 252 188 169 175 150 163 155 78 29 24 35 41 38 40 42 43 46 50 70 109 155 175 183 181 181 180 236 257 264 270 269 262 250 258 271 277 273 280 280 278 287 287
7 233 223 313 235 152 177 250 164 176 214 179 164 142 116 73 60 64 72 78 81 78 79 79 81 85 98 115 135 146 142 133 152 206 255 275 282 289 282 293 295 292 288 283 283 280 286 285 281
195 212 244 234 217 188 191 261 173 190 197 157 148 133 113 104 90 89 92 91 96 102 107 99 94 95 95 102 114 125 128 128 139 151 161 249 282 277 282 286 293 295 299 295 301 295 297 288 291
138 170 216 226 257 174 226 254 262 153 144 158 155 137 121 109 102 101 102 100 100 102 106 106 102 96 96 101 109 114 113 109 117 102 77 318 300 297 301 296 298 292 289 295 306 308 307 304 303
139 166 242 292 222 135 275 260 261 135 175 191 172 158 146 126 117 110 107 107 104 100 98 98 95 94 93 90 89 90 94 97 91 83 77 70 62 47 15 334 311 306 304 295 300 305 318 322 323
198 198 190 215 37 214 354 278 230 58 105 152 166 160 150 141 136 129 123 115 107 101 95 92 89 86 83 82 83 85 87 91 94 86 79 67 57 49 41 34 24 3 351 332 329 317 309 308 310
206 194 176 174 126 234 139 275 289 186 167 179 173 170 164 156 147 138 131 125 118 109 105 96 88 86 86 88 91 89 86 74 79 70 64 60 53 47 46 40 36 34 28 17 16 7 358 343 333
229 138 164 141 158 113 230 288 263 154 228 196 191 182 175 165 155 145 137 126 116 111 106 94 86 87 94 96 90 81 74 76 77 69 56 45 39 34 32 29 28 23 23 21 16 11 10 10 2
149 81 56 56 108 255 215 183 257 205 212 158 184 187 184 174 166 157 149 139 130 125 113 100 87 79 79 73 64 54 54 55 55 49 34 29 23 22 21 19 14 14 11 10 8 8 4 4 359
125 117 50 330 277 228 49 144 247 236 181 183 190 188 184 180 175 169 164 156 147 138 127 115 97 76 69 69 79 81 75 81 73 63 46 37 24 14 10 9 6 5 5 1 358 354 351 349 345
190 169 169 207 199 232 47 220 243 153 174 224 196 189 185 185 182 179 173 167 160 160 157 140 131 127 124 144 145 129 120 106 79 63 38 18 11 8 7 4 360 355 353 350 348 346 342 339 335
186 203 166 108 42 65 218 275 270 146 196 161 179 187 189 188 187 188 184 181 178 175 178 179 190 188 172 171 163 149 130 106 59 32 17 1 354 349 345 341 339 338 338 338 337 336 333 332 330
179 156 99 4 210 260 264 257 228 205 202 180 185 191 194 193 193 192 195 195 192 196 199 207 212 205 198 197 189 180 161 100 24 12 358 354 347 340 334 332 334 333 333 332 331 330 330 328 327
150 181 78 135 160 185 229 245 212 192 180 193 201 199 197 195 195 198 201 203 209 212 215 218 219 219 214 212 208 210 221 294 351 350 344 339 335 333 330 329 328 328 328 328 328 329 329 328 325
224 189 163 169 213 256 173 244 114 233 201 194 201 199 199 200 200 203 207 211 216 222 224 223 224 225 220 219 219 224 243 288 328 332 331 329 328 328 327 325 325 325 326 326 327 327 327 327 325